Other Public Products
Issued by NWS Grand Forks, ND

Home | Current Version | Previous Version | Text Only | Print | Product List | Glossary Off
Versions: 1 2 3 4 5 6 7 8 9 10 11 12 13 14 15 16 17 18 19 20 21 22 23 24 25 26 27 28 29 30 31 32 33 34 35 36 37 38 39 40 41 42 43 44 45 46 47 48 49 50

000
FPUS83 KFGF 042110
OPUFGF
PRAIRIE TO PINES WEATHER ROUNDUP
NATIONAL WEATHER SERVICE EASTERN NORTH DAKOTA/GRAND FORKS ND
400 PM CDT FRI SEP 04 2015

 **SATELLITE DATA USED TO AUGMENT SKY COVER AT AUTOMATED STATIONS**
 *****  WEATHER ACROSS EASTERN NORTH DAKOTA  *****

CITY           SKY/WX    TMP DP  RH WIND       PRES   REMARKS
GRAND FORKS    PTSUNNY   78  65  63 SW9       29.79R
GRAND FORKS AF FAIR      75  70  83 S7        29.80R
GRAND CITY NWS   N/A     79 N/A N/A W7          N/A
BUXTON         NOT AVBL
DEVILS LAKE    CLOUDY    68  63  83 E8        29.79R
FARGO          LGT RAIN  79  71  76 SE8       29.81R
WAHPETON ARPT  FAIR      81  66  61 SE10      29.81F
$$

 *****  WEATHER ACROSS CENTRAL AND WESTERN NORTH DAKOTA  *****

CITY           SKY/WX    TMP DP  RH WIND       PRES   REMARKS
JAMESTOWN      FAIR      79  66  64 SE6       29.78F
BISMARCK       FAIR      86  67  52 CALM      29.77R
MINOT          CLOUDY    73  62  68 NW15G21   29.81R
MINOT AFB      NOT AVBL
GARRISON         N/A     81  65  58 N6        29.80S
WILLISTON      FAIR      73  57  57 N16       29.86F
DICKINSON      PTSUNNY   75  64  68 NE8       29.83S
HETTINGER      FAIR      89  56  32 VRB6      29.80F
$$

 *****  OTHER OBSERVATIONS NORTHEAST NORTH DAKOTA  *****

CITY           SKY/WX    TMP DP  RH WIND       PRES   REMARKS
WALHALLA       LGT RAIN  66  66 100 MISG      29.83R
LANGDON        DRIZZLE   66  66 100 E8        29.83R
CAVALIER       LGT RAIN  64  63  94 E3        29.81R
GRAFTON        FAIR      66  66 100 N12G18    29.81F
CANDO          NOT AVBL
FORT TOTTEN    NOT AVBL
ROLLA          CLOUDY    64  64 100 NE8       29.80F FOG
RUGBY          FAIR      72  66  83 E12       29.76F
 ***** THE ABOVE OBSERVATIONS ARE NON NWS ARE NOT QUALITY
        CONTROLLED AND MAY MIS-REPORT RAIN FOR SNOW...
$$

 *****  OTHER OBSERVATIONS SOUTHEAST NORTH DAKOTA *****

CITY           SKY/WX    TMP DP  RH WIND       PRES   REMARKS
COOPERSTOWN    NOT AVBL
VALLEY CITY    FAIR      81  73  78 S10       29.80S
OAKES            N/A     82  82 100 E8        29.78F HX  97
GWINNER        MOCLDY    79  79 100 E13       29.80S
SHEYENNE NWR     N/A     77  70  79 SE7       29.95
BUFFALO        NOT AVBL
WYNDMERE         N/A     79  72  78 SE7         N/A
 ***** THE ABOVE OBSERVATIONS ARE NON NWS ARE NOT QUALITY
       CONTROLLED AND MAY MIS-REPORT RAIN FOR SNOW...
$$

  *****  WEATHER ACROSS NORTHERN MINNESOTA  *****

CITY           SKY/WX    TMP DP  RH WIND       PRES   REMARKS
FLAG ISLAND    CLOUDY    75  70  83 SE8       29.84S
WARROAD        FAIR      81  73  78 S8        29.86R
ROSEAU         FAIR      79  72  78 S8        29.84R
HALLOCK        LGT RAIN  68  66  94 NW10G20   29.81R
THF RVR FALLS  PTSUNNY   81  70  69 SW9       29.83R
HALSTAD        NOT AVBL
FOSSTON        FAIR      81  68  65 S9        29.86R
BAUDETTE       PTSUNNY   85  70  60 S9G20     29.86R
WASKISH        PTSUNNY   82  72  69 SE5       29.87R
CROOKSTON      LGT RAIN  77  70  78 SW7       29.82R
$$
  *****  WEATHER ACROSS CENTRAL AND WEST MINNESOTA  *****

CITY           SKY/WX    TMP DP  RH WIND       PRES   REMARKS
BEMIDJI        FAIR      81  71  71 SE8       29.87S
PARK RAPIDS    FAIR      84  70  62 S14       29.87R
WADENA         FAIR      84  72  65 S13       29.86S
DETROIT LAKES  FAIR      79  70  73 SW6       29.88R
MOORHEAD       FAIR      77  70  78 S8        29.83R
FERGUS FALLS   FAIR      81  70  69 S10       29.83S
ELBOW LAKE     FAIR      82  72  71 SE10      29.85S HAZE
MORRIS MN      FAIR      82  70  65 SE7       29.84F
STAPLES        FAIR      84  70  61 SE12      29.86R
WHEATON        FAIR      82  70  65 SE10      29.83S
$$
  *****  WEATHER ELSEWHERE ACROSS MINNESOTA  *****

CITY           SKY/WX    TMP DP  RH WIND       PRES   REMARKS
DULUTH         FAIR      76  65  68 E17       29.96F
INTRNTL FALLS  FAIR      85  70  60 SE16G22   29.88F
ELY            FAIR      81  61  50 SE13G18   29.97S
CLOQUET        FAIR      75  63  64 E12       29.95F
BRAINERD       FAIR      84  70  62 SE9G22    29.88F
HIBBING        FAIR      83  69  62 SE15G22   29.93F
ALEXANDRIA     FAIR      84  71  65 S10       29.87F
SAINT CLOUD    FAIR      88  73  61 SE16G22   29.88S HX  95
MINNEAPOLIS    FAIR      89  72  56 SE18G24   29.89F HX  96
$$

  *****  WEATHER ACROSS SOUTH DAKOTA  *****

CITY           SKY/WX    TMP DP  RH WIND       PRES   REMARKS
SIOUX FALLS    PTSUNNY   82  71  69 SE16      29.85F
BROOKINGS      FAIR      79  66  65 SE20G29   29.86R
WATERTOWN      FAIR      83  67  58 SE16G22   29.84S
HURON          FAIR      88  69  53 SE15G22   29.74F HX  92
SISSETON         N/A     85  68  56 SE9       29.80F
ABERDEEN       FAIR      88  69  53 S10       29.77S HX  92
MITCHELL       FAIR      91  69  48 SE14G28   29.76F HX  96
PIERRE         FAIR      91  66  43 SE9       29.72S HX  93
MOBRIDGE       FAIR      92  63  38 VRB3      29.73F HX  93
RAPID CITY     FAIR      89  55  31 N5        29.80F
$$

  *****  SOME WEATHER IN NEARBY STATES *****

CITY           SKY/WX    TMP DP  RH WIND       PRES   REMARKS
GLASGOW MT     PTSUNNY   75  47  36 NE17G23   29.87F
GREAT FALLS MT LGT RAIN  51  49  92 N7        29.99R
CHEYENNE WY    FAIR      85  35  16 S18G24    30.03S
SCOTTSBLUFF NE FAIR      89  39  17 SE9       29.88S
OMAHA NE       FAIR      90  72  55 S17       29.87F HX  97
DES MOINES IA  PTSUNNY   89  70  53 S12       29.93S HX  94
DAVENPORT IA   FAIR      90  70  51 VRB3      29.97F HX  95
CHICAGO IL     PTSUNNY   80  66  62 NE9       30.00S
EAU CLAIRE WI  FAIR      85  71  63 SE10      29.96F HX  90
LA CROSSE WI   PTSUNNY   86  71  60 SE7       29.94F HX  91
$$

  *****  SOME NATIONAL WEATHER *****

CITY           SKY/WX    TMP DP  RH WIND       PRES   REMARKS
LA GUARDIA NY  FAIR      82  64  54 NE13      30.10S
RALEIGH NC     CLOUDY    82  70  66 VRB3      30.01R
ATLANTA GA     PTSUNNY   92  69  47 VRB3      29.97F HX  97
NEW ORLEANS LA LGT RAIN  79  72  79 CALM      29.97F
OKLAHOMA CITY  PTSUNNY   93  65  39 S14       29.93F HX  95
ALBUQUERQUE NM LGT RAIN  68  58  70 S14       30.16R
SALT LAKE CITY FAIR      87  35  15 S28G37    29.77F
LOS ANGELES CA FAIR      74  58  57 W13       29.87F
BOISE ID       FAIR      71  40  32 VRB5      29.74F
SEATTLE WA     PTSUNNY   60  47  61 N9        30.00F
$$

*** WEATHER ACROSS MANITOBA...SASKATCHEWAN AND ONTARIO ***
                ***ONTARIO***

CITY           SKY/WX    TMP DP  RH WIND       PRES   REMARKS
GERALDTON      MOSUNNY   81  59  47 S7        30.08F
THUNDER BAY    MOSUNNY   75  61  60 E9        30.06S
SIOUX LOOKOUT  PTSUNNY   82  61  47 S13G18    29.95S
TORONTO        MOSUNNY   81  50  34 E14G23    30.10S
BIG TROUT LK   SUNNY     72  63  73 VRB3      29.93F
PICKLE LAKE    NOT AVBL
DRYDEN         SUNNY     84  64  51 SE16G23   29.94R
KENORA         CLOUDY    81  68  65 SE12G21   29.89R
$$
                *** MANITOBA***

CITY           SKY/WX    TMP DP  RH WIND       PRES   REMARKS
BRANDON        CLOUDY    66  61  82 NE16      29.86R
DAUPHIN        CLOUDY    63  55  77 N10G17    29.93S
ISLAND LAKE    PTSUNNY   63  63 100 N3        29.93R
PILOT MOUND      N/A     63  63 100 NE8         N/A
THE PAS        MOSUNNY   64  46  52 N9        30.00F
THOMPSON       MOSUNNY   70  45  40 W13       29.95F
WINNIPEG       LGT RAIN  68  66  94 E5        29.85R
LYNN LAKE      SUNNY     59  43  55 NW10G17   30.03R
CHURCHILL      PTSUNNY   52  48  87 N15       29.95S
GILLAM         PTSUNNY   64  52  63 W9        29.92S
$$
                ***SASKATCHEWAN***

CITY           SKY/WX    TMP DP  RH WIND       PRES   REMARKS
ESTEVAN        CLOUDY    66  54  63 NE10G18   29.90R
KINDERSLEY     CLOUDY    55  43  62 E9        30.10S
LLOYDMINSTER   CLOUDY    55  39  54 NW6       30.14S
PRINCE ALBERT  PTSUNNY   61  43  51 N10G18    30.07F
REGINA         MOSUNNY   64  39  39 NE22      29.97F



USA.gov is the U.S. government's official web portal to all federal, state and local government web resources and services.